Wind_Speed
25 23 22 23 25 26 26 26 26 28 30 32 33 34 34 33 33 34 34 33 32 30 29 27 26 24 24 23 22 21 20 19 18 17 15 14 14 13 12 12 11 11 11 12 12 12 12 12 12 12 13 13 13 13 13 13 14 14 14 14 14 15 15 15 15 15 15 15 15 15 15 15 15 16 16 16 16 16 15 15 15 15 16 16 16 16
24 23 23 24 25 25 25 27 29 31 32 33 34 34 33 33 34 34 34 33 31 29 27 26 25 24 23 22 21 20 19 18 17 16 15 14 13 12 12 12 12 12 12 12 12 12 12 13 13 13 13 13 13 14 14 14 14 14 14 15 15 15 16 16 16 16 16 16 16 16 15 15 15 16 16 16 16 16 16 16 16 16 16 16 16 17
26 26 26 26 27 27 28 30 32 33 34 34 34 33 33 34 34 34 33 31 29 27 26 25 24 23 22 21 20 19 18 17 16 15 14 13 13 12 12 12 12 12 12 12 12 13 13 13 13 13 14 14 14 14 14 14 15 15 15 15 16 16 16 16 16 16 16 16 16 16 16 16 16 16 16 16 16 16 16 16 16 16 16 16 16 17
29 30 30 31 31 32 33 34 34 35 35 34 34 34 34 34 34 33 31 29 27 26 25 24 23 22 22 20 19 18 17 16 15 14 13 13 12 12 12 12 12 12 12 13 13 13 13 13 14 14 14 14 14 14 15 15 15 15 16 16 16 16 17 17 17 17 17 17 16 16 16 16 16 16 16 16 16 16 16 16 16 16 16 16 17 17
32 32 33 34 35 36 36 36 36 36 36 35 35 35 35 34 32 31 29 27 25 24 24 23 22 21 21 19 18 17 16 14 14 13 13 13 12 12 12 12 12 13 13 13 13 13 13 14 14 14 14 15 15 15 15 15 16 16 16 16 17 17 17 17 17 17 17 17 17 16 16 16 16 16 16 16 16 16 16 16 16 16 16 16 17 17
34 34 34 35 36 37 37 37 37 37 37 36 36 35 33 32 30 28 27 25 24 23 23 22 21 21 19 18 17 16 14 14 13 13 12 12 12 12 12 13 13 13 13 13 13 13 14 14 14 14 15 15 15 15 15 16 16 16 16 17 17 17 17 17 17 17 17 17 17 17 16 16 16 16 16 16 16 16 16 16 16 16 17 17 17 17
35 34 34 35 36 36 37 37 37 37 36 35 34 32 31 29 27 26 25 24 23 22 22 21 20 19 18 17 16 15 14 13 13 12 12 12 12 12 13 13 13 13 13 13 13 14 14 14 14 15 15 15 16 16 16 16 16 16 16 17 17 17 17 17 17 17 17 17 17 17 17 17 16 16 17 17 16 17 17 17 17 17 17 17 17 17
35 34 33 34 34 35 35 35 35 35 34 32 30 29 28 26 25 24 23 23 22 22 21 20 19 18 17 16 15 14 13 13 12 12 12 12 12 13 13 13 13 13 13 13 14 14 14 14 15 15 15 16 16 16 16 16 16 16 16 16 17 17 17 17 17 17 17 17 17 17 17 17 17 17 17 17 17 17 17 17 17 17 17 17 17 17
34 33 32 32 32 33 33 32 32 31 30 29 27 26 25 24 23 23 22 22 21 21 20 19 18 17 16 15 14 13 13 12 12 12 12 12 12 13 13 13 13 13 14 14 14 14 14 15 15 15 15 16 16 16 16 16 16 16 16 16 16 16 16 16 16 16 16 16 17 17 17 17 17 17 17 17 17 17 17 17 16 16 16 16 17 17
32 31 31 30 30 30 29 29 28 27 26 25 24 23 23 22 22 21 21 21 20 19 18 17 16 16 15 14 13 13 12 12 12 12 12 12 13 13 13 13 13 14 14 14 14 14 14 15 15 15 15 16 16 16 16 16 16 16 16 16 16 16 16 16 16 16 16 16 16 17 17 17 17 17 17 17 17 17 17 16 16 16 16 16 16 17
30 29 29 28 27 26 26 26 25 24 23 23 22 21 21 21 21 21 21 20 19 18 17 16 15 15 14 13 13 13 12 12 12 12 12 13 13 13 14 14 14 14 14 14 14 14 14 15 15 15 15 16 16 16 16 16 16 16 16 16 16 16 16 16 16 16 16 16 16 16 17 17 17 17 17 17 17 17 17 17 17 16 16 16 17 17
27 27 26 25 25 24 23 23 23 22 21 21 21 20 20 21 21 20 19 18 17 17 16 15 14 14 13 13 13 13 13 13 12 12 13 13 13 14 14 14 14 14 14 14 14 14 14 15 15 15 15 15 16 16 16 16 16 16 16 16 16 16 16 16 16 16 16 16 16 16 16 16 16 17 17 17 17 17 17 17 17 17 17 17 17 17
25 24 24 23 22 21 21 21 21 21 20 20 20 21 21 21 20 19 18 17 16 15 15 14 14 13 13 13 13 13 13 13 13 13 13 14 14 14 14 14 14 14 14 14 14 14 15 15 15 15 15 15 16 16 16 16 16 16 16 16 16 16 16 16 16 16 16 16 16 16 16 16 16 16 17 17 17 17 17 17 17 17 17 18 18 18
23 22 22 21 21 20 20 20 21 21 21 21 21 21 20 20 18 17 16 15 14 14 14 13 13 13 13 13 13 13 13 13 13 13 14 14 14 14 14 14 14 14 14 14 14 15 15 15 15 15 15 15 16 16 16 16 16 16 16 16 16 16 16 16 16 16 16 16 16 16 16 16 16 16 17 17 17 17 17 18 18 18 18 18 18 19
22 21 21 20 20 21 21 21 21 21 21 21 21 20 19 18 16 15 14 14 13 13 13 13 13 13 13 13 13 13 13 13 13 13 13 14 14 14 14 13 14 14 14 14 14 15 15 15 15 15 15 15 16 16 16 16 16 16 16 16 16 16 16 16 16 16 16 16 16 16 16 16 17 17 17 17 17 18 18 18 18 19 19 19 19 19
21 21 21 21 21 21 21 21 22 22 21 21 20 18 17 15 14 13 13 12 12 12 13 13 13 13 14 14 14 14 13 13 13 13 13 14 14 14 14 13 14 14 14 15 15 15 15 15 15 15 15 16 16 16 16 16 16 16 16 16 16 16 16 16 16 16 16 16 16 17 17 17 17 17 17 18 18 18 19 19 19 19 20 20 20 20
21 21 21 21 21 22 22 22 22 21 20 19 17 16 14 13 12 12 12 12 12 12 13 13 13 13 13 14 14 14 13 13 13 13 13 14 14 14 14 13 14 14 15 15 15 15 15 15 15 15 16 16 16 16 16 16 16 16 17 17 17 17 17 17 17 17 17 17 17 17 17 17 18 18 18 19 19 19 19 20 20 20 20 21 21 21
21 21 21 21 22 22 21 21 20 19 18 16 15 14 12 12 12 12 12 12 12 13 13 13 13 13 13 14 14 14 14 13 13 13 13 14 14 14 14 14 14 14 15 15 15 15 15 16 16 16 16 16 16 16 16 17 17 17 17 17 17 17 17 17 17 17 17 17 17 18 18 18 18 19 19 20 20 20 20 21 21 21 21 21 21 21
21 21 21 21 21 21 20 19 18 17 16 14 13 12 12 11 11 12 12 13 13 13 13 13 14 14 14 14 14 14 14 13 13 13 13 14 14 14 14 14 14 15 15 16 16 16 16 16 16 16 16 16 16 17 17 17 17 17 17 17 17 17 17 17 17 17 18 18 18 18 19 19 19 20 20 20 21 21 21 21 22 22 22 22 22 22
20 20 20 20 20 19 18 17 16 15 14 13 12 12 11 12 12 12 13 13 13 14 14 14 13 13 13 13 14 14 14 13 13 13 13 14 14 15 15 15 15 15 16 16 16 16 16 16 16 17 17 17 17 17 17 17 17 17 17 18 18 18 18 18 18 18 18 19 19 19 20 20 20 21 21 21 22 22 22 22 22 22 22 22 22 22
19 19 19 18 17 17 16 16 15 14 13 12 12 12 12 12 12 13 13 13 13 13 14 13 13 13 13 13 14 14 14 14 13 14 14 14 15 15 16 16 16 16 16 17 17 17 17 17 17 17 17 17 17 17 17 17 18 18 18 18 18 18 18 19 19 19 19 20 20 20 21 21 21 22 22 22 23 23 23 23 23 23 23 23 22 22
18 17 16 16 16 16 15 14 14 13 13 12 12 12 13 13 13 13 13 13 13 13 13 13 13 13 13 13 14 14 14 14 14 14 15 15 15 16 16 16 16 16 17 17 18 18 17 17 17 17 17 17 17 18 18 18 18 18 18 18 18 19 19 19 20 20 20 21 21 22 22 22 23 23 23 23 23 23 23 23 23 23 23 23 23 23
15 15 15 15 15 15 15 14 13 13 13 13 13 13 13 13 13 13 13 13 13 13 13 13 13 13 13 13 14 14 15 15 15 15 15 15 16 17 17 17 16 17 17 18 18 18 18 18 18 18 18 18 18 18 18 18 18 18 19 19 19 19 20 20 20 21 21 22 22 23 23 23 24 24 24 24 24 24 24 24 24 24 23 23 23 23
14 14 15 16 15 15 14 14 13 13 13 13 13 13 13 13 13 13 13 13 13 13 13 13 13 13 13 14 14 15 15 15 15 15 15 16 16 17 17 17 17 17 17 18 18 18 18 18 18 18 18 18 18 18 18 19 19 19 19 19 20 20 20 21 21 22 22 23 23 23 24 24 24 25 25 25 25 25 24 24 24 24 24 23 23 23
14 16 16 16 15 15 14 14 14 13 13 13 13 13 13 13 13 13 13 13 13 13 13 13 13 13 14 14 14 15 15 15 15 15 16 16 17 17 18 18 17 17 18 19 19 19 18 18 18 19 18 18 19 19 19 19 19 20 20 20 20 21 21 21 22 22 23 23 24 24 24 25 25 25 25 25 25 25 25 25 24 24 24 24 23 23
16 17 17 16 15 15 14 14 14 13 13 13 13 13 13 13 13 13 13 13 13 13 14 14 14 14 14 14 14 15 16 16 16 16 16 17 17 18 18 18 18 18 18 19 19 19 19 19 19 19 19 19 19 19 19 20 20 20 20 21 21 21 22 22 22 23 23 24 24 24 25 25 25 25 25 25 25 25 25 25 25 24 24 23 23 23
17 17 16 15 15 15 14 14 14 13 13 13 13 13 13 13 13 13 13 14 14 14 14 14 14 14 15 15 15 16 16 17 17 17 17 17 18 18 19 19 18 18 18 19 20 19 19 19 19 19 19 19 20 20 20 20 21 21 21 21 22 22 22 23 23 24 24 24 24 25 25 25 25 25 25 25 25 25 25 25 24 24 24 23 23 23
18 17 16 15 15 15 15 14 14 13 13 13 13 13 14 13 13 13 14 14 14 14 15 15 15 15 15 15 16 17 17 17 17 18 18 18 18 19 19 19 19 19 19 19 20 20 20 20 20 20 20 20 20 21 21 21 21 21 22 22 22 23 23 23 24 24 24 25 25 25 25 25 25 25 25 25 25 25 25 24 24 23 23 23 22 22
17 16 16 16 15 15 15 14 14 13 13 13 14 14 14 14 14 14 14 15 15 15 15 15 15 15 16 16 17 17 18 18 18 19 19 18 19 19 19 19 19 19 19 20 20 21 21 21 21 21 21 21 21 21 21 22 22 22 22 22 23 23 23 24 24 24 25 25 25 25 25 25 25 25 25 25 25 25 24 24 23 23 22 22 22 22
17 16 16 16 15 15 15 14 14 14 14 14 14 14 14 14 14 14 15 15 15 15 15 15 15 16 16 16 17 18 18 19 19 19 19 19 19 20 20 20 20 20 20 20 20 21 21 22 22 21 21 21 21 22 22 22 22 22 23 23 23 24 24 24 24 25 25 25 25 25 25 25 25 25 25 25 24 24 24 23 23 22 22 22 21 22
16 16 16 15 15 15 14 14 14 14 14 14 14 14 14 14 14 14 14 14 15 15 15 15 16 16 17 17 17 18 18 19 19 20 19 19 19 20 20 20 20 20 21 21 21 21 22 23 23 23 22 22 22 22 22 23 23 23 23 23 23 24 24 24 25 25 25 25 25 25 25 25 25 25 25 24 24 24 23 23 22 22 21 21 21 21
16 16 15 15 15 14 14 14 14 14 14 14 14 14 14 14 14 14 14 14 14 15 15 16 16 17 17 17 18 18 19 19 20 20 20 19 20 20 21 20 21 21 22 22 22 22 22 23 23 23 23 22 22 22 23 23 23 23 23 23 24 24 24 25 25 25 25 25 25 25 25 25 25 24 24 24 23 23 23 22 22 21 21 21 21 21
16 15 15 15 14 14 14 14 13 13 13 13 13 13 13 13 13 13 14 14 14 15 16 16 17 17 18 18 18 19 19 19 20 20 20 20 20 21 21 21 21 22 22 22 23 23 23 23 24 24 24 23 23 23 23 23 23 24 24 24 24 24 25 25 25 25 25 25 25 25 25 25 24 24 24 23 23 23 22 22 22 21 21 21 21 21
15 15 15 14 14 14 13 13 13 13 13 13 13 13 13 13 13 13 14 14 15 16 16 17 17 18 18 18 19 19 19 20 20 21 21 21 21 21 22 22 22 23 23 23 23 23 23 24 24 24 24 24 24 23 23 23 24 24 24 24 24 25 25 25 25 25 25 25 25 25 24 24 24 23 23 23 23 22 22 22 22 21 21 21 21 21
15 15 14 14 14 13 13 12 12 12 12 12 12 13 13 13 13 14 14 15 16 16 17 17 18 18 19 19 19 20 20 20 21 21 22 22 22 22 23 23 23 23 23 24 24 24 24 24 25 25 24 24 24 24 24 24 24 24 24 25 25 25 25 26 26 25 25 25 25 24 24 24 23 23 23 23 23 22 22 22 22 22 22 22 22 22
14 14 14 13 13 12 12 12 12 12 12 12 12 13 13 13 14 15 15 16 16 17 18 18 19 19 19 20 20 20 20 21 22 23 23 23 23 23 23 24 24 24 24 24 24 24 24 25 25 25 25 25 24 24 24 24 24 24 25 25 25 26 26 26 26 25 25 25 24 24 24 24 23 23 23 23 23 22 22 22 22 22 22 22 23 23
14 13 13 13 12 12 12 12 12 12 12 12 12 13 13 14 14 15 16 16 17 17 18 18 19 19 20 20 21 21 21 22 23 23 24 24 24 24 24 24 24 24 24 24 24 24 24 24 25 25 25 25 25 25 25 25 25 25 25 26 26 26 26 26 26 25 25 25 24 24 24 23 23 23 23 23 23 23 23 23 23 23 23 23 23 23
13 13 12 12 12 12 12 12 12 12 12 12 13 13 14 14 14 15 15 16 16 17 18 18 19 19 20 20 21 21 22 22 23 24 24 25 25 24 24 24 24 24 24 24 24 24 24 24 25 25 25 26 26 26 25 25 25 25 26 26 26 26 26 26 26 26 25 25 24 24 24 24 23 23 23 23 23 23 23 23 23 23 24 24 24 24
13 12 12 12 12 12 12 12 12 12 13 13 13 13 13 14 14 14 15 16 16 17 17 18 18 19 20 20 21 21 22 22 23 24 24 25 25 25 24 24 24 24 24 24 23 23 23 24 24 25 25 26 26 26 26 26 26 26 26 26 27 27 27 27 26 26 25 25 25 24 24 24 24 24 24 24 23 23 23 23 24 24 24 24 25 25
13 13 13 13 13 13 13 13 13 13 13 13 13 13 13 14 14 14 15 15 16 16 17 17 18 19 19 20 21 21 22 22 23 23 24 24 25 25 24 24 24 24 24 23 23 23 23 24 24 25 25 26 26 27 27 27 27 27 27 27 27 27 27 27 27 26 26 25 25 25 24 24 24 24 24 24 24 24 24 24 24 24 25 25 25 25
13 13 13 13 13 13 13 13 13 13 13 13 13 14 14 14 14 15 15 16 16 17 17 18 18 19 20 20 21 21 22 22 22 23 24 24 24 24 24 24 24 24 24 24 24 24 24 24 24 24 25 25 26 26 27 28 28 28 28 27 27 27 27 27 27 27 26 26 25 25 25 25 24 24 24 24 24 24 24 24 24 25 25 25 25 25
13 13 13 13 13 13 13 14 14 14 14 14 14 14 15 15 15 16 16 16 17 18 18 19 19 20 20 21 21 22 22 22 22 23 23 24 24 24 24 24 24 24 24 24 24 24 24 24 25 25 25 25 26 26 27 28 28 29 28 28 28 28 28 28 27 27 26 26 26 26 25 25 25 25 25 24 24 24 24 25 25 25 25 25 26 26
14 14 14 14 14 14 14 14 14 15 15 15 15 15 16 16 17 17 17 18 18 19 19 20 20 21 21 22 22 23 23 23 23 23 23 23 24 24 24 25 25 25 25 25 25 25 25 25 25 25 25 26 26 26 27 28 29 29 29 29 29 29 28 28 28 28 27 27 26 26 26 25 25 25 25 25 25 25 25 25 25 25 25 26 26 26
14 14 14 15 15 15 15 15 15 16 16 16 16 17 17 18 18 18 19 19 19 20 20 21 21 22 22 23 23 24 24 24 24 24 24 24 24 25 25 25 26 26 26 26 26 26 26 26 26 26 26 26 26 26 27 29 30 30 30 30 30 29 29 28 28 28 28 27 27 27 26 26 25 25 25 25 25 25 25 25 25 25 26 26 26 26
15 15 15 15 16 16 16 16 16 17 17 17 18 18 19 19 20 20 20 20 20 21 21 21 22 22 23 24 24 24 24 24 24 24 24 24 25 25 25 26 26 27 27 27 27 27 27 27 28 28 28 27 27 27 28 29 30 31 31 31 31 30 29 29 29 29 28 28 27 27 27 26 26 25 25 25 25 25 25 25 25 25 26 26 26 27
15 16 16 16 16 16 17 17 18 18 18 19 19 20 20 20 21 21 21 21 21 21 22 22 23 23 24 25 25 25 24 24 23 23 24 24 24 25 25 26 27 27 27 28 28 29 29 29 29 29 29 28 28 29 29 30 31 31 32 32 31 31 30 30 30 29 29 28 28 27 27 27 26 26 25 25 25 25 25 25 26 26 26 27 27 27
16 16 16 17 17 17 17 18 18 19 19 20 20 21 21 22 22 22 22 22 22 22 23 23 24 24 25 26 26 26 25 24 23 23 23 24 24 25 26 26 27 27 28 28 29 29 30 30 30 30 30 30 30 30 31 31 32 32 33 33 32 31 31 31 31 30 29 29 28 28 28 27 27 26 25 25 25 25 25 26 26 26 27 27 28 28
16 17 17 17 17 18 18 19 19 20 20 21 21 21 22 22 23 23 23 23 23 23 24 24 25 25 26 27 27 27 26 25 24 23 23 24 24 25 26 26 27 27 28 28 29 30 30 30 31 31 31 31 31 31 32 32 33 34 34 34 33 32 32 31 31 31 30 29 29 28 28 27 27 26 25 25 25 25 25 26 26 27 27 28 28 29
17 17 17 18 18 18 19 19 20 20 21 21 21 22 22 23 23 23 24 24 24 24 25 25 26 27 27 28 28 28 27 26 25 24 24 24 25 26 26 27 27 28 28 29 29 30 30 30 31 31 31 32 32 32 33 33 34 34 34 34 34 33 33 32 32 31 30 29 29 29 28 28 27 27 26 25 24 24 24 25 26 27 28 28 29 29
17 17 18 18 18 18 19 19 20 20 21 21 22 22 23 23 23 24 24 24 25 25 26 27 27 28 28 28 28 28 27 26 26 26 26 26 26 27 27 27 28 28 29 29 30 30 30 30 31 31 32 32 33 33 33 34 34 35 35 35 35 34 34 33 33 32 31 30 29 29 28 28 28 27 26 25 24 24 24 24 25 26 28 28 29 30
17 17 18 18 18 19 19 20 20 21 21 22 22 23 23 23 24 24 24 25 25 26 27 28 28 28 28 28 27 27 26 26 27 27 27 28 28 28 28 28 28 28 29 29 30 30 30 30 31 31 32 33 34 34 34 34 35 35 35 36 35 35 34 33 33 32 31 30 30 29 29 28 28 27 26 25 25 24 24 24 24 25 27 28 29 30
Wind_Direction
287 287 286 283 278 273 268 267 268 270 273 275 280 287 294 297 298 297 296 295 294 294 293 292 292 291 290 289 288 288 286 285 284 282 280 278 276 275 275 276 276 276 276 277 277 277 277 278 277 278 278 278 278 278 278 279 279 279 280 280 280 280 280 280 280 280 280 280 280 280 280 280 280 281 282 283 284 285 285 286 286 287 287 288 288 289
285 284 281 277 272 267 265 266 268 271 275 280 285 292 297 298 297 295 294 293 292 291 290 290 289 289 288 287 286 285 284 283 281 280 278 276 275 274 274 275 276 276 277 278 278 279 279 279 279 279 279 279 280 280 280 280 280 280 281 281 281 281 281 281 281 281 281 281 280 280 280 280 280 281 281 282 283 284 285 286 286 287 287 287 287 288
282 276 272 270 267 266 266 268 270 274 279 285 290 295 297 296 295 293 291 290 289 288 288 287 287 287 286 285 284 282 281 280 278 277 275 274 274 274 274 275 275 276 277 277 278 279 279 279 280 280 280 280 280 281 280 281 281 281 281 281 281 281 281 281 282 282 282 281 281 281 281 280 280 280 281 281 283 284 285 285 286 286 286 286 287 287
280 274 270 268 268 268 270 272 275 279 283 288 292 294 294 293 291 290 288 287 286 286 285 285 285 285 284 283 281 280 278 277 275 274 273 273 273 273 274 275 275 276 276 277 278 278 278 278 279 279 279 280 280 280 280 280 280 280 280 280 281 281 281 282 282 282 282 282 282 282 281 281 281 281 281 281 282 283 284 285 285 285 286 286 286 286
280 275 272 270 271 272 274 276 279 283 286 289 291 291 291 290 288 286 285 284 283 283 284 284 283 283 282 280 278 277 275 274 272 271 271 271 272 273 274 275 275 276 276 277 277 277 277 277 278 278 278 278 279 279 279 279 279 280 280 280 281 281 281 282 282 282 282 283 282 283 282 282 282 281 282 282 283 283 284 285 285 285 285 285 286 286
279 276 273 271 272 273 275 277 280 283 285 287 287 287 287 286 284 283 282 282 282 282 282 282 282 280 279 277 275 273 272 271 269 269 269 269 270 272 273 274 275 276 276 276 276 276 276 277 277 277 278 278 278 278 279 279 279 279 280 280 280 281 281 282 282 282 282 283 283 283 283 283 283 283 283 283 283 284 284 285 285 285 286 286 286 286
277 275 273 272 272 273 274 277 279 281 283 284 284 284 283 282 281 280 280 280 280 280 281 280 279 278 276 274 272 271 269 268 267 267 267 268 269 270 272 273 274 274 275 275 275 275 275 276 277 277 277 278 278 278 279 279 279 280 280 280 281 281 282 282 282 282 283 283 283 283 283 283 283 283 283 284 284 284 285 285 285 285 285 286 285 286
275 274 273 272 273 273 274 276 277 279 280 281 281 280 279 279 279 279 279 279 279 279 279 277 276 274 272 271 269 268 267 266 266 266 267 268 269 270 271 272 273 273 274 274 274 274 275 276 276 277 277 278 279 279 280 280 280 280 280 281 281 281 282 282 282 282 283 283 283 283 283 283 283 283 284 284 284 284 284 285 285 285 285 285 285 285
275 274 273 273 273 274 274 275 276 277 278 278 278 277 277 277 277 278 278 278 278 277 276 274 272 270 269 267 267 266 266 266 266 267 267 268 269 270 270 271 272 272 273 273 273 274 275 276 276 277 278 279 279 280 280 280 280 281 281 281 281 281 281 282 282 282 282 282 282 282 283 283 283 284 284 284 284 284 284 284 284 284 284 284 285 285
275 275 274 273 273 274 275 275 276 276 276 276 276 275 275 276 276 277 277 276 275 274 273 271 269 268 266 266 266 265 265 266 267 267 268 269 269 270 270 271 272 272 272 273 273 274 275 276 277 278 279 279 280 280 281 280 281 281 281 281 281 281 281 281 281 281 281 282 282 282 282 283 283 284 284 284 284 285 285 285 285 285 285 285 285 285
275 275 274 274 274 274 275 275 275 275 275 275 275 275 275 275 275 274 273 273 272 271 269 268 266 265 265 265 266 266 266 267 268 269 269 270 270 270 271 271 272 272 272 273 274 275 276 276 277 278 279 280 280 280 280 280 280 280 280 280 280 280 280 280 280 280 281 281 281 282 282 283 283 284 284 285 285 285 286 286 286 285 285 285 285 285
275 275 274 274 275 275 275 275 274 274 274 275 275 275 274 273 272 271 270 269 268 267 266 265 264 264 264 265 265 267 268 269 270 270 270 270 271 271 271 272 272 272 272 273 274 275 276 277 278 279 279 280 280 280 280 280 280 281 281 280 281 280 280 280 280 280 281 281 281 282 282 283 283 284 285 285 286 286 286 287 287 287 286 286 286 286
273 273 273 273 274 274 274 274 274 274 274 274 273 272 271 269 269 268 268 266 265 263 262 262 262 263 264 265 266 267 269 270 271 272 271 271 271 272 272 273 273 273 274 275 276 277 278 279 279 280 280 280 281 281 281 281 281 281 281 281 281 281 281 281 281 281 281 281 282 282 283 283 284 284 285 286 286 287 287 287 287 287 287 287 287 286
271 272 272 272 272 272 272 272 273 273 272 271 270 269 268 267 267 266 264 262 261 260 260 260 262 263 265 266 267 268 270 271 272 273 273 272 273 273 274 274 275 275 276 277 278 279 279 280 280 281 281 281 281 281 281 281 282 282 282 282 282 282 282 282 282 282 282 282 283 283 283 284 284 285 285 286 286 287 287 287 288 288 288 287 287 287
269 269 270 270 271 271 270 271 271 270 270 269 268 267 266 265 264 262 260 258 257 257 258 259 261 264 266 267 268 269 270 271 272 272 273 273 273 274 275 276 277 278 278 279 280 281 281 281 281 281 281 281 281 281 282 282 282 282 282 282 282 282 282 282 282 282 282 283 283 283 284 284 285 285 286 286 287 287 287 287 287 288 287 287 287 287
267 268 268 269 269 269 269 269 269 268 267 266 265 264 263 262 260 258 256 255 255 255 257 259 261 264 266 268 269 270 270 271 271 271 272 272 273 275 276 277 278 279 280 280 281 281 281 281 281 281 281 281 281 281 281 282 282 282 282 282 282 282 282 282 282 283 283 283 284 284 284 285 285 286 286 286 287 287 287 287 287 287 287 287 287 286
265 267 268 268 268 268 268 267 267 266 265 264 262 261 259 257 255 253 253 253 254 256 258 260 262 263 266 268 270 270 271 271 271 271 271 272 273 275 276 277 278 279 280 280 280 280 281 281 281 281 281 281 281 281 281 281 282 282 282 282 282 282 282 282 283 283 283 284 284 284 285 285 286 286 287 287 287 287 287 287 287 287 287 287 286 286
264 266 266 267 266 266 266 265 264 263 261 259 258 256 254 252 252 252 252 254 255 257 260 262 263 264 265 268 270 271 271 271 271 271 272 273 274 276 277 278 278 279 279 279 280 280 280 280 280 280 280 280 280 281 281 281 281 282 282 282 282 282 282 282 283 283 283 284 284 285 285 286 286 286 287 287 287 287 287 287 287 287 287 287 286 286
263 264 265 264 264 263 263 261 260 258 256 254 252 251 250 250 251 252 254 256 257 259 261 263 264 266 266 268 269 270 271 271 271 272 273 274 275 277 278 278 279 279 279 279 279 279 279 279 279 280 280 280 281 281 281 282 282 282 282 282 282 283 283 283 283 283 283 284 284 285 285 286 286 287 287 287 288 288 288 288 287 287 287 287 286 286
261 261 261 261 261 259 258 256 254 252 250 249 248 248 248 249 251 253 255 257 258 260 262 264 265 267 268 269 270 271 272 273 273 273 274 276 277 278 279 279 279 279 279 279 279 279 279 279 279 280 280 281 281 282 282 282 282 282 283 283 283 283 283 283 283 284 284 284 285 285 286 286 287 287 288 288 288 288 288 288 288 287 287 286 286 286
257 257 257 256 255 253 251 249 248 247 246 246 247 248 249 251 252 254 256 257 259 261 263 264 265 267 268 270 271 272 273 274 274 275 276 277 278 278 279 279 280 279 279 279 279 279 279 279 280 280 281 281 282 282 282 283 283 283 283 283 283 283 284 284 284 284 285 285 286 286 287 287 288 288 288 289 289 289 288 288 288 287 286 286 286 285
252 252 252 251 249 246 245 244 244 244 245 247 249 250 251 253 253 255 256 257 259 261 262 264 265 266 268 269 270 272 273 275 276 276 277 278 278 279 279 279 279 279 279 278 278 279 279 280 280 280 281 282 282 282 282 282 282 283 283 283 283 284 284 284 285 285 286 286 287 287 288 288 289 289 289 289 289 289 288 288 287 287 286 286 285 285
246 246 245 245 243 242 241 242 243 245 248 249 251 253 254 254 255 255 256 258 259 260 262 263 265 266 267 269 270 272 274 275 276 277 277 278 278 278 278 278 278 278 278 278 278 279 279 280 280 281 281 282 282 282 282 282 282 282 282 283 283 283 284 285 285 286 287 287 288 289 289 290 290 290 290 290 289 289 288 288 287 287 286 285 285 285
241 241 241 240 240 240 241 243 245 248 250 251 253 254 255 255 256 257 258 259 260 261 263 264 265 267 268 270 271 273 274 275 276 276 277 277 277 277 277 277 278 277 277 277 278 279 279 280 280 281 281 281 281 281 281 281 281 282 282 282 283 283 284 285 286 286 287 288 289 289 290 290 291 291 290 290 289 289 288 288 287 286 286 285 285 284
238 238 238 238 239 241 243 245 247 249 250 251 252 253 254 255 256 257 259 260 262 263 264 266 267 268 270 271 272 273 274 275 276 276 276 276 276 276 276 277 277 277 277 277 278 278 279 280 280 280 281 281 281 281 281 281 281 282 282 283 283 284 285 285 286 287 288 289 289 290 291 291 291 291 290 290 289 289 288 287 287 286 286 285 284 284
237 237 237 238 240 242 244 246 248 248 250 250 251 252 254 255 257 258 260 262 263 265 266 268 269 270 271 272 272 273 274 275 275 275 275 275 275 275 276 276 276 276 276 277 278 278 279 279 280 280 280 280 280 281 281 281 282 282 283 283 284 285 285 286 287 288 289 289 290 291 291 291 291 291 290 290 289 288 288 287 286 286 285 285 284 283
236 236 237 239 241 243 245 246 247 247 248 249 251 252 254 256 257 259 261 263 264 266 267 269 270 271 272 273 273 273 274 275 275 275 275 274 275 275 276 276 277 276 276 277 277 278 278 279 279 279 280 280 280 281 281 282 282 283 283 284 285 286 287 288 288 289 290 290 291 291 291 291 291 290 290 289 288 288 287 286 286 285 285 284 283 283
235 236 238 240 241 243 244 245 246 247 248 250 251 253 255 257 259 260 262 264 265 267 268 270 271 272 273 274 274 274 275 275 275 275 275 275 276 276 276 277 277 277 277 277 278 278 278 278 278 279 279 280 280 281 281 282 283 283 284 285 286 287 288 289 290 290 291 291 292 292 292 291 291 290 290 289 288 287 286 286 285 284 284 283 282 282
235 236 238 240 241 243 244 245 246 247 249 251 253 255 257 259 260 261 263 265 267 268 270 271 273 274 274 275 275 276 276 276 276 276 276 277 277 277 278 278 278 278 277 277 278 278 279 279 278 279 279 279 280 281 282 282 283 284 285 286 287 288 289 290 290 291 292 292 292 292 292 292 291 290 289 288 287 286 285 285 284 283 283 282 282 281
235 237 239 240 241 243 244 245 247 249 251 253 255 257 259 261 262 263 265 267 268 270 272 273 275 275 276 276 276 277 277 278 278 278 278 278 279 279 279 279 279 278 278 278 278 279 279 279 279 279 279 280 281 281 282 283 284 285 286 287 288 288 289 290 291 291 292 292 293 293 292 292 291 290 289 288 287 286 285 284 283 282 282 281 281 281
236 238 239 240 242 243 245 247 249 251 253 255 257 259 261 262 264 265 267 268 270 272 274 275 276 277 277 277 277 278 278 279 280 280 280 280 280 280 280 280 280 279 279 279 278 279 279 280 280 280 280 281 282 282 283 284 285 285 286 287 288 289 289 290 291 292 292 293 293 293 292 292 291 290 288 287 286 285 284 283 282 281 281 281 281 281
238 239 240 242 243 245 247 249 251 253 255 257 259 261 262 264 265 267 269 271 272 274 275 276 277 278 278 278 278 279 279 280 281 281 281 281 281 281 281 281 280 280 281 280 280 280 280 280 281 282 282 282 283 283 284 284 285 286 287 288 288 289 290 291 292 293 293 293 293 293 292 291 290 289 288 287 286 285 283 283 282 281 280 280 280 281
239 241 242 243 245 247 249 250 252 254 256 258 260 262 264 265 267 269 271 273 274 275 276 277 277 278 278 279 279 280 280 280 281 282 282 282 282 282 282 282 282 282 282 282 282 282 282 282 282 283 283 284 284 284 285 285 286 287 288 289 289 290 291 292 293 293 294 294 293 293 292 291 290 289 288 287 285 284 283 282 281 281 280 280 281 281
240 242 243 244 246 248 249 251 253 254 256 258 260 262 265 267 269 271 273 275 276 276 277 277 278 279 279 280 280 281 281 281 281 281 282 282 282 282 283 283 283 283 283 284 284 284 284 284 284 284 285 285 285 285 286 286 287 288 289 290 290 291 292 293 294 294 294 294 293 293 292 291 289 288 287 286 285 284 283 282 282 281 281 281 281 282
240 242 243 244 246 247 248 250 252 253 255 257 260 263 265 268 271 273 274 276 277 278 278 279 279 280 280 281 281 282 282 282 282 282 282 282 283 283 284 284 284 284 284 284 285 285 285 285 285 285 286 286 286 286 287 287 288 289 289 290 291 292 292 293 294 294 294 294 293 292 291 290 289 288 287 286 285 284 283 283 282 282 282 282 282 283
240 241 242 243 244 245 246 248 250 252 255 257 261 264 267 270 272 275 276 278 279 280 281 281 282 282 282 282 282 283 282 282 282 282 282 283 283 283 284 284 284 285 285 285 285 286 286 286 286 286 286 286 287 287 287 287 288 289 290 291 291 292 293 293 294 294 294 293 293 292 291 289 288 287 286 286 285 284 284 283 283 283 283 283 284 284
239 240 240 241 243 244 246 248 250 253 256 259 263 266 269 272 275 277 279 281 282 283 283 284 284 284 284 284 284 283 283 282 282 282 282 282 283 283 284 284 284 285 285 285 285 286 286 286 286 287 287 287 287 288 288 288 289 290 290 291 292 293 293 294 294 294 294 293 292 291 290 289 288 287 286 286 285 284 284 284 284 284 284 284 285 285
238 239 240 241 243 245 247 250 252 255 258 261 264 268 271 274 276 279 281 283 284 285 286 286 286 286 286 286 285 285 284 283 282 282 282 282 283 283 284 284 284 284 285 285 285 285 285 285 286 286 287 288 288 289 289 289 290 290 291 292 293 294 294 294 295 295 294 293 292 291 290 289 288 287 286 286 285 285 284 284 284 284 285 285 286 286
238 239 241 242 244 247 249 251 254 256 259 262 265 268 271 275 278 280 283 285 286 287 288 289 289 289 288 288 287 286 286 285 284 283 283 283 284 284 284 284 284 284 284 284 284 284 284 284 285 286 286 288 289 290 290 291 291 291 292 293 294 294 295 295 295 295 294 293 292 291 290 289 288 287 286 285 285 284 284 284 284 284 285 286 286 287
240 241 243 245 247 249 252 254 256 258 261 263 266 270 273 276 280 283 285 287 289 290 291 291 292 292 292 291 290 289 288 287 286 286 285 285 285 285 285 284 284 284 284 283 283 283 283 284 284 285 286 287 288 290 291 292 292 292 293 293 294 294 295 295 295 295 294 293 292 290 289 288 287 287 286 285 284 284 284 284 284 284 285 286 287 287
243 245 248 250 253 255 257 258 260 262 264 266 270 273 276 279 282 285 287 289 291 292 293 294 295 295 295 294 293 291 290 289 288 287 287 286 286 286 286 285 284 284 284 283 283 283 283 283 284 285 286 287 288 289 291 291 292 292 293 293 293 294 294 295 295 294 293 292 291 290 288 287 287 286 285 284 284 284 284 284 284 285 285 286 287 287
248 251 253 256 258 260 261 263 264 266 268 270 273 276 279 281 283 286 288 290 291 293 294 295 296 296 296 296 295 294 292 291 290 289 288 287 286 286 286 285 285 284 284 283 283 283 283 283 283 284 285 286 287 288 289 290 291 291 292 292 293 294 294 294 294 293 292 291 290 288 287 286 285 284 284 283 283 283 284 284 285 285 286 287 287 288
252 255 257 259 261 263 264 266 267 269 271 273 275 278 280 282 284 286 288 289 291 293 295 296 297 297 298 298 297 296 295 294 292 290 289 288 287 286 285 285 284 284 284 283 283 283 283 283 283 283 283 284 285 286 287 288 289 290 291 291 292 292 293 293 293 292 291 290 289 287 286 285 284 284 283 282 282 283 283 284 285 285 286 286 287 288
254 256 258 260 262 263 265 267 268 270 272 274 276 279 281 283 284 286 288 289 291 293 295 296 298 298 299 299 298 297 296 295 294 293 291 290 289 287 286 286 285 284 284 283 283 282 282 282 282 282 282 282 283 284 284 285 287 288 289 290 291 291 291 292 291 290 289 289 288 287 286 284 284 283 282 282 282 282 283 284 284 285 286 286 287 288
254 256 258 260 262 264 265 267 269 272 273 276 278 280 282 283 285 286 288 290 291 293 295 297 299 300 300 300 299 298 297 296 295 294 293 292 290 289 288 287 286 286 285 284 283 282 282 281 281 281 281 281 281 281 282 282 284 285 287 289 290 290 291 291 290 289 288 288 287 286 285 284 283 283 282 282 282 283 283 284 285 285 286 286 287 287
256 258 260 262 264 266 268 270 272 274 276 278 280 281 283 284 286 287 288 290 291 293 295 297 299 300 301 300 300 299 297 296 295 293 293 292 292 291 290 289 288 287 286 285 284 283 282 281 281 280 280 280 280 280 280 280 281 283 285 287 288 289 289 289 288 288 287 287 286 285 284 283 283 282 282 282 282 283 283 284 285 285 286 286 287 287
259 261 263 265 267 270 272 274 276 277 279 281 282 283 284 285 287 288 289 290 292 294 295 297 299 300 301 300 300 298 297 296 294 293 292 291 291 291 291 290 289 288 287 286 286 285 284 283 282 281 280 279 279 279 279 280 280 281 283 285 286 287 287 287 287 286 286 286 285 284 284 283 283 282 282 282 282 283 284 284 285 286 286 286 287 287
263 265 267 270 272 274 276 277 279 280 282 283 284 284 285 286 287 289 290 291 292 294 295 297 299 300 300 299 299 298 296 295 294 293 292 291 290 290 290 290 290 289 288 288 287 286 285 285 284 283 282 280 279 279 279 279 280 281 283 284 285 285 285 285 285 285 284 284 283 283 282 282 282 282 281 281 282 282 283 284 285 286 286 287 287 288
267 269 271 273 275 277 279 280 282 283 284 284 285 286 287 288 289 290 291 292 293 294 296 297 298 298 298 298 297 296 295 295 294 294 294 293 292 291 291 291 290 290 289 288 287 287 286 286 285 284 283 282 280 279 279 279 280 281 282 283 284 284 283 283 283 283 282 282 281 281 281 281 281 281 281 281 281 281 283 284 285 286 287 287 288 289
270 272 274 276 278 280 281 283 284 285 286 286 287 288 288 289 290 290 291 292 293 294 295 296 297 297 297 296 295 294 294 294 295 295 295 295 294 293 293 292 291 290 289 288 288 287 287 286 286 285 284 283 281 280 279 279 280 281 282 282 282 282 282 281 281 281 281 280 279 279 279 279 280 280 280 280 280 280 281 282 284 285 286 287 288 289
272 274 277 279 280 282 283 285 286 286 287 288 288 289 289 290 290 291 291 292 293 293 294 295 295 295 295 294 293 293 293 294 295 296 296 296 295 295 294 293 292 291 290 289 289 288 288 287 287 286 285 284 283 282 281 281 281 281 281 282 282 282 281 281 280 280 279 278 278 277 278 278 279 279 280 280 280 279 280 281 282 283 285 286 287 288
Height
3096 3096 3097 3097 3097 3097 3097 3096 3096 3095 3094 3094 3093 3093 3093 3093 3092 3092 3091 3091 3090 3090 3089 3089 3089 3088 3088 3087 3087 3087 3086 3086 3086 3086 3086 3086 3086 3085 3085 3085 3086 3086 3086 3086 3086 3086 3086 3086 3086 3086 3086 3086 3086 3086 3086 3086 3086 3086 3086 3086 3086 3086 3086 3086 3086 3086 3086 3086 3086 3086 3086 3086 3086 3086 3086 3085 3085 3085 3085 3085 3085 3084 3084 3084 3083 3083
3095 3095 3096 3096 3095 3095 3094 3094 3093 3092 3091 3091 3091 3091 3091 3091 3090 3090 3089 3089 3088 3088 3087 3087 3087 3086 3086 3086 3086 3085 3085 3085 3085 3084 3084 3084 3084 3084 3084 3084 3084 3084 3085 3085 3085 3085 3085 3085 3085 3085 3085 3085 3085 3085 3085 3085 3085 3085 3085 3085 3085 3085 3085 3085 3085 3085 3085 3085 3085 3085 3085 3085 3085 3085 3084 3084 3084 3084 3084 3084 3083 3083 3083 3083 3082 3082
3093 3093 3093 3093 3092 3092 3091 3091 3090 3089 3089 3089 3089 3089 3089 3088 3088 3087 3087 3086 3086 3086 3086 3085 3085 3085 3084 3084 3084 3084 3084 3083 3083 3083 3083 3083 3083 3083 3083 3083 3083 3083 3083 3084 3084 3084 3084 3084 3084 3084 3084 3084 3084 3084 3084 3084 3084 3084 3084 3084 3084 3084 3084 3084 3084 3084 3084 3084 3084 3084 3084 3083 3083 3083 3083 3083 3083 3083 3082 3082 3082 3082 3082 3081 3081 3081
3091 3091 3090 3090 3090 3089 3088 3088 3087 3087 3087 3087 3087 3087 3087 3086 3086 3086 3085 3085 3085 3084 3084 3084 3083 3083 3083 3082 3082 3082 3082 3082 3082 3082 3082 3082 3082 3082 3082 3082 3082 3082 3082 3082 3082 3083 3083 3083 3083 3083 3083 3083 3083 3083 3083 3083 3083 3083 3083 3083 3082 3082 3082 3082 3082 3082 3082 3082 3082 3082 3082 3082 3082 3082 3082 3082 3081 3081 3081 3081 3081 3081 3081 3080 3080 3080
3089 3088 3088 3088 3087 3086 3086 3086 3085 3085 3085 3085 3085 3085 3085 3085 3084 3084 3083 3083 3083 3082 3082 3082 3081 3081 3081 3081 3081 3081 3081 3081 3081 3081 3081 3081 3081 3081 3081 3081 3081 3081 3081 3081 3081 3081 3081 3081 3081 3081 3081 3082 3082 3082 3082 3081 3081 3081 3081 3081 3081 3081 3081 3081 3081 3081 3081 3081 3081 3081 3081 3081 3081 3081 3081 3080 3080 3080 3080 3080 3080 3079 3079 3079 3079 3078
3086 3086 3086 3086 3085 3085 3084 3084 3083 3083 3083 3083 3083 3083 3083 3082 3082 3081 3081 3081 3081 3081 3080 3080 3080 3080 3080 3080 3080 3080 3080 3080 3080 3080 3080 3080 3080 3080 3080 3080 3080 3080 3080 3081 3081 3081 3081 3081 3081 3081 3081 3081 3081 3081 3081 3081 3081 3080 3080 3080 3080 3080 3080 3080 3080 3080 3080 3079 3079 3079 3079 3079 3079 3079 3079 3079 3079 3079 3078 3078 3078 3078 3078 3077 3077 3077
3084 3083 3083 3083 3083 3083 3082 3082 3082 3082 3082 3081 3081 3081 3081 3081 3080 3080 3079 3079 3079 3079 3079 3078 3078 3078 3078 3078 3078 3078 3079 3079 3079 3079 3079 3079 3079 3079 3079 3079 3079 3079 3079 3079 3079 3079 3079 3079 3080 3080 3079 3079 3079 3079 3079 3079 3079 3079 3079 3079 3079 3079 3078 3078 3078 3078 3078 3078 3078 3078 3078 3078 3078 3077 3077 3077 3077 3077 3077 3077 3076 3076 3076 3076 3076 3076
3081 3081 3081 3081 3080 3080 3080 3080 3080 3080 3080 3080 3079 3079 3079 3079 3078 3078 3077 3077 3077 3077 3077 3077 3077 3077 3077 3077 3077 3077 3077 3077 3077 3077 3077 3077 3078 3078 3078 3078 3078 3078 3078 3078 3078 3078 3078 3078 3078 3078 3078 3078 3078 3078 3078 3078 3078 3078 3078 3077 3077 3077 3077 3077 3077 3077 3077 3077 3076 3076 3076 3076 3076 3076 3076 3076 3076 3076 3076 3076 3075 3075 3075 3075 3074 3074
3078 3078 3078 3078 3078 3078 3078 3078 3078 3078 3077 3077 3077 3077 3077 3076 3076 3076 3076 3076 3076 3075 3075 3075 3075 3075 3075 3076 3076 3076 3076 3076 3076 3076 3076 3076 3076 3076 3077 3077 3077 3077 3077 3077 3077 3077 3077 3077 3077 3077 3077 3077 3077 3077 3077 3077 3076 3076 3076 3076 3076 3076 3076 3076 3076 3076 3076 3076 3075 3075 3075 3075 3075 3075 3075 3075 3074 3074 3074 3074 3074 3074 3073 3073 3073 3073
3076 3076 3076 3076 3076 3076 3075 3075 3076 3076 3075 3075 3075 3075 3075 3075 3075 3074 3074 3074 3074 3074 3074 3074 3074 3074 3074 3074 3074 3075 3075 3075 3075 3075 3075 3075 3075 3075 3076 3076 3076 3076 3076 3076 3076 3076 3076 3076 3076 3076 3076 3076 3076 3076 3076 3076 3075 3075 3075 3075 3075 3075 3075 3075 3075 3075 3074 3074 3074 3074 3074 3074 3074 3073 3073 3073 3073 3073 3073 3072 3072 3072 3072 3072 3072 3071
3074 3074 3074 3073 3073 3073 3073 3073 3073 3073 3073 3073 3073 3073 3073 3073 3073 3072 3072 3072 3072 3072 3072 3072 3072 3073 3073 3073 3073 3073 3073 3074 3074 3074 3074 3074 3074 3074 3074 3075 3075 3075 3075 3075 3075 3075 3075 3075 3075 3075 3075 3075 3074 3074 3074 3074 3074 3074 3074 3074 3074 3074 3074 3073 3073 3073 3073 3073 3073 3073 3072 3072 3072 3072 3072 3072 3071 3071 3071 3071 3071 3071 3071 3070 3070 3070
3072 3072 3071 3071 3071 3071 3071 3071 3071 3071 3071 3071 3071 3071 3071 3071 3071 3071 3071 3071 3071 3071 3071 3071 3071 3071 3071 3072 3072 3072 3072 3072 3072 3072 3073 3073 3073 3073 3073 3073 3074 3074 3074 3074 3074 3074 3074 3074 3074 3074 3073 3073 3073 3073 3073 3073 3073 3073 3072 3072 3072 3072 3072 3072 3072 3072 3072 3072 3071 3071 3071 3071 3071 3071 3071 3070 3070 3070 3070 3069 3069 3069 3069 3069 3069 3068
3070 3070 3069 3069 3069 3069 3069 3069 3069 3069 3069 3070 3070 3070 3069 3069 3069 3069 3069 3069 3069 3070 3070 3070 3070 3070 3070 3071 3071 3071 3071 3071 3071 3071 3071 3071 3071 3071 3072 3072 3072 3072 3072 3072 3072 3072 3072 3072 3072 3072 3072 3072 3072 3072 3071 3071 3071 3071 3071 3071 3071 3071 3071 3071 3071 3071 3071 3070 3070 3070 3070 3070 3069 3069 3069 3069 3069 3068 3068 3068 3068 3067 3067 3067 3067 3067
3067 3067 3067 3067 3067 3067 3067 3067 3067 3067 3068 3068 3068 3067 3067 3067 3068 3068 3068 3068 3068 3068 3069 3069 3069 3069 3069 3069 3069 3069 3070 3070 3070 3070 3070 3070 3070 3070 3071 3071 3071 3071 3071 3071 3071 3071 3071 3071 3071 3071 3071 3071 3071 3070 3070 3070 3070 3070 3070 3070 3070 3070 3070 3069 3069 3069 3069 3069 3069 3069 3068 3068 3068 3068 3068 3067 3067 3067 3067 3066 3066 3066 3066 3066 3065 3065
3066 3066 3066 3066 3066 3066 3066 3066 3066 3066 3066 3066 3066 3066 3066 3066 3066 3066 3066 3067 3067 3067 3067 3067 3067 3068 3068 3068 3068 3068 3068 3069 3069 3069 3069 3069 3069 3069 3069 3069 3069 3069 3069 3069 3069 3070 3070 3070 3070 3069 3069 3069 3069 3069 3069 3069 3069 3069 3068 3068 3068 3068 3068 3068 3068 3068 3068 3067 3067 3067 3067 3067 3066 3066 3066 3066 3066 3066 3065 3065 3065 3064 3064 3064 3064 3063
3063 3064 3064 3064 3064 3064 3064 3064 3064 3064 3064 3064 3064 3064 3064 3065 3065 3065 3065 3066 3066 3066 3066 3066 3066 3066 3066 3066 3067 3067 3067 3067 3067 3068 3068 3068 3067 3068 3068 3068 3068 3068 3068 3068 3068 3068 3068 3068 3068 3068 3068 3068 3068 3068 3068 3067 3067 3067 3067 3067 3067 3067 3067 3066 3066 3066 3066 3066 3066 3066 3065 3065 3065 3065 3065 3064 3064 3064 3064 3063 3063 3063 3062 3062 3062 3062
3061 3062 3062 3062 3062 3062 3062 3062 3062 3062 3062 3062 3062 3063 3063 3063 3064 3064 3064 3064 3064 3065 3065 3065 3065 3065 3065 3065 3065 3066 3066 3066 3066 3066 3066 3066 3066 3066 3067 3067 3067 3067 3067 3067 3067 3067 3067 3067 3067 3067 3067 3066 3066 3066 3066 3066 3066 3066 3066 3066 3066 3065 3065 3065 3065 3065 3065 3065 3064 3064 3064 3064 3063 3063 3063 3063 3062 3062 3062 3061 3061 3061 3061 3061 3060 3060
3060 3060 3060 3060 3060 3060 3060 3060 3061 3061 3061 3061 3061 3061 3062 3062 3062 3063 3063 3063 3063 3063 3064 3064 3064 3064 3064 3064 3064 3064 3064 3065 3065 3065 3065 3065 3065 3065 3065 3066 3066 3066 3066 3066 3065 3065 3066 3066 3065 3065 3065 3065 3065 3065 3065 3065 3065 3064 3064 3064 3064 3064 3064 3064 3063 3063 3063 3063 3063 3062 3062 3062 3062 3061 3061 3061 3061 3060 3060 3060 3060 3059 3059 3059 3058 3058
3058 3058 3058 3058 3059 3059 3059 3059 3059 3059 3059 3060 3060 3060 3061 3061 3061 3061 3061 3061 3062 3062 3062 3062 3062 3063 3063 3063 3063 3063 3063 3063 3064 3064 3064 3064 3064 3064 3064 3064 3064 3064 3064 3064 3064 3064 3064 3064 3064 3064 3064 3064 3064 3064 3063 3063 3063 3063 3063 3063 3062 3062 3062 3062 3062 3061 3061 3061 3061 3061 3061 3060 3060 3060 3059 3059 3059 3058 3058 3058 3058 3057 3057 3057 3056 3056
3056 3056 3056 3056 3057 3057 3057 3057 3057 3058 3058 3059 3059 3059 3059 3060 3060 3060 3060 3060 3060 3061 3061 3061 3061 3061 3061 3061 3061 3061 3061 3062 3062 3062 3062 3062 3062 3062 3062 3063 3063 3063 3063 3062 3062 3062 3062 3062 3062 3062 3062 3062 3062 3062 3062 3062 3061 3061 3061 3061 3061 3061 3061 3060 3060 3060 3060 3059 3059 3059 3059 3058 3058 3058 3057 3057 3057 3056 3056 3056 3056 3055 3055 3055 3054 3054
3054 3054 3055 3055 3055 3056 3056 3056 3056 3057 3057 3057 3058 3058 3058 3058 3058 3059 3059 3059 3059 3059 3059 3059 3060 3060 3060 3060 3060 3060 3060 3061 3061 3061 3061 3061 3061 3061 3061 3061 3061 3061 3061 3061 3061 3061 3061 3061 3061 3061 3061 3061 3061 3061 3060 3060 3060 3060 3060 3059 3059 3059 3059 3058 3058 3058 3058 3057 3057 3057 3057 3056 3056 3056 3056 3055 3055 3055 3054 3054 3054 3053 3053 3053 3052 3052
3052 3053 3053 3054 3054 3055 3055 3055 3055 3056 3056 3056 3056 3056 3057 3057 3057 3057 3057 3057 3058 3058 3058 3058 3058 3059 3059 3059 3059 3059 3059 3059 3060 3060 3060 3060 3060 3060 3060 3060 3060 3060 3060 3059 3059 3059 3059 3059 3059 3059 3059 3059 3059 3059 3059 3058 3058 3058 3058 3058 3057 3057 3057 3057 3056 3056 3056 3056 3055 3055 3055 3055 3054 3054 3054 3053 3053 3052 3052 3052 3051 3051 3051 3051 3050 3050
3051 3051 3052 3053 3053 3053 3054 3054 3054 3054 3055 3055 3055 3055 3056 3056 3056 3056 3056 3056 3056 3056 3057 3057 3057 3057 3058 3058 3058 3057 3058 3058 3058 3058 3058 3058 3058 3058 3058 3058 3058 3058 3058 3058 3058 3057 3058 3058 3058 3058 3058 3057 3057 3057 3057 3057 3056 3056 3056 3056 3056 3055 3055 3055 3055 3054 3054 3054 3053 3053 3053 3052 3052 3052 3051 3051 3051 3050 3050 3050 3049 3049 3049 3048 3048 3048
3050 3051 3051 3051 3052 3052 3052 3053 3053 3053 3053 3054 3054 3054 3054 3054 3055 3055 3055 3055 3055 3056 3056 3056 3056 3056 3056 3056 3056 3056 3056 3056 3056 3056 3056 3057 3056 3056 3056 3057 3057 3056 3056 3056 3056 3056 3056 3056 3056 3056 3056 3056 3056 3055 3055 3055 3055 3055 3054 3054 3054 3054 3053 3053 3053 3052 3052 3052 3051 3051 3051 3050 3050 3050 3049 3049 3048 3048 3048 3047 3047 3047 3046 3046 3046 3046
3049 3050 3050 3050 3051 3051 3051 3051 3051 3052 3052 3052 3052 3053 3053 3053 3053 3053 3053 3054 3054 3054 3054 3054 3055 3055 3055 3055 3055 3055 3055 3055 3055 3055 3055 3055 3055 3055 3055 3055 3055 3055 3055 3054 3054 3054 3054 3054 3054 3054 3054 3054 3054 3054 3053 3053 3053 3053 3053 3052 3052 3052 3051 3051 3051 3051 3050 3050 3049 3049 3049 3048 3048 3047 3047 3046 3046 3046 3046 3045 3045 3045 3044 3044 3044 3043
3048 3048 3049 3049 3049 3050 3050 3050 3051 3051 3051 3051 3051 3051 3051 3051 3052 3052 3052 3052 3052 3052 3053 3053 3053 3053 3053 3053 3053 3053 3053 3053 3053 3053 3053 3053 3053 3053 3053 3053 3053 3053 3053 3053 3052 3052 3052 3052 3052 3052 3052 3052 3052 3052 3051 3051 3051 3051 3051 3051 3050 3050 3050 3049 3049 3049 3048 3048 3047 3047 3047 3046 3046 3045 3045 3045 3044 3044 3043 3043 3042 3042 3042 3042 3041 3041
3047 3047 3047 3048 3048 3048 3049 3049 3049 3049 3050 3050 3050 3050 3050 3050 3050 3051 3051 3051 3051 3051 3051 3051 3051 3051 3052 3052 3051 3051 3051 3051 3051 3051 3052 3052 3052 3051 3051 3052 3052 3051 3051 3051 3051 3051 3051 3051 3051 3051 3050 3050 3050 3050 3050 3050 3049 3049 3049 3049 3048 3048 3048 3047 3047 3047 3046 3046 3046 3045 3045 3044 3044 3043 3043 3042 3042 3041 3041 3041 3041 3040 3040 3040 3039 3039
3046 3046 3046 3046 3047 3047 3047 3047 3048 3048 3048 3048 3048 3049 3049 3049 3049 3049 3049 3049 3050 3050 3050 3050 3050 3050 3050 3050 3050 3050 3050 3050 3050 3050 3050 3050 3050 3050 3050 3050 3050 3050 3050 3049 3049 3049 3049 3049 3049 3049 3048 3048 3048 3048 3048 3048 3047 3047 3047 3047 3046 3046 3046 3045 3045 3045 3044 3044 3044 3043 3043 3042 3042 3041 3041 3040 3040 3039 3039 3039 3038 3038 3038 3037 3037 3036
3044 3044 3045 3045 3046 3046 3046 3046 3046 3046 3047 3047 3047 3047 3047 3048 3048 3048 3048 3048 3048 3048 3048 3049 3049 3049 3049 3049 3049 3048 3048 3048 3048 3048 3048 3049 3048 3048 3048 3048 3048 3048 3048 3047 3047 3047 3047 3047 3047 3047 3047 3046 3046 3046 3046 3046 3046 3045 3045 3045 3045 3044 3044 3043 3043 3043 3042 3042 3041 3041 3041 3040 3040 3039 3039 3038 3038 3037 3037 3036 3036 3036 3036 3035 3035 3035
3043 3043 3044 3044 3044 3044 3045 3045 3045 3045 3046 3046 3046 3046 3046 3046 3047 3047 3047 3047 3047 3047 3047 3047 3047 3047 3047 3047 3047 3047 3047 3047 3047 3047 3047 3047 3047 3046 3046 3046 3046 3046 3046 3046 3045 3045 3045 3045 3045 3045 3045 3045 3045 3044 3044 3044 3044 3043 3043 3043 3043 3042 3042 3041 3041 3041 3040 3040 3040 3039 3039 3038 3037 3037 3036 3036 3036 3035 3035 3035 3034 3034 3034 3033 3033 3033
3042 3042 3042 3043 3043 3043 3043 3044 3044 3044 3044 3044 3045 3045 3045 3045 3045 3046 3046 3046 3046 3046 3046 3046 3046 3046 3046 3046 3046 3046 3046 3045 3045 3045 3045 3045 3045 3045 3045 3045 3044 3044 3044 3044 3044 3043 3043 3043 3043 3043 3043 3043 3043 3042 3042 3042 3041 3041 3041 3041 3041 3040 3040 3039 3039 3039 3038 3038 3037 3037 3036 3036 3035 3035 3034 3034 3034 3033 3033 3032 3032 3032 3032 3031 3031 3031
3041 3041 3041 3041 3042 3042 3042 3042 3042 3043 3043 3043 3043 3044 3044 3044 3044 3044 3044 3044 3045 3045 3045 3045 3045 3045 3045 3045 3045 3045 3044 3044 3044 3043 3043 3043 3043 3043 3043 3043 3043 3042 3042 3042 3042 3042 3041 3041 3041 3041 3041 3041 3041 3041 3040 3040 3040 3039 3039 3039 3038 3038 3038 3037 3037 3036 3036 3036 3035 3035 3034 3034 3033 3033 3032 3032 3031 3031 3031 3031 3030 3030 3030 3030 3029 3029
3039 3040 3040 3040 3041 3041 3041 3041 3041 3041 3042 3042 3042 3042 3043 3043 3043 3043 3043 3043 3043 3043 3043 3043 3043 3043 3043 3043 3043 3043 3043 3043 3042 3042 3042 3042 3041 3041 3041 3041 3041 3041 3040 3040 3040 3040 3040 3039 3039 3039 3039 3039 3039 3039 3038 3038 3038 3037 3037 3037 3036 3036 3036 3035 3035 3034 3034 3034 3033 3033 3032 3031 3031 3031 3030 3030 3029 3029 3029 3028 3028 3028 3028 3027 3027 3027
3038 3039 3039 3039 3039 3040 3040 3040 3040 3041 3041 3041 3041 3041 3041 3041 3041 3042 3042 3042 3042 3042 3042 3042 3042 3042 3042 3042 3042 3041 3041 3041 3041 3040 3040 3040 3040 3040 3039 3039 3039 3039 3038 3038 3038 3037 3037 3037 3037 3037 3037 3037 3037 3037 3036 3036 3036 3035 3035 3035 3034 3034 3033 3033 3032 3032 3032 3031 3031 3030 3030 3029 3029 3028 3028 3028 3027 3027 3027 3026 3026 3026 3026 3026 3025 3025
3037 3037 3038 3038 3038 3039 3039 3039 3039 3040 3040 3040 3040 3040 3040 3040 3040 3041 3041 3041 3041 3041 3041 3041 3041 3041 3041 3041 3040 3040 3040 3040 3039 3039 3038 3038 3038 3038 3038 3037 3037 3037 3036 3036 3036 3036 3035 3035 3035 3035 3035 3035 3035 3035 3034 3034 3033 3033 3033 3032 3032 3032 3031 3031 3031 3030 3030 3029 3029 3028 3028 3027 3027 3026 3026 3026 3025 3025 3025 3025 3024 3024 3024 3024 3023 3023
3036 3036 3036 3037 3037 3037 3038 3038 3038 3038 3039 3039 3039 3039 3039 3039 3039 3039 3039 3039 3040 3040 3039 3039 3039 3039 3039 3039 3039 3039 3038 3038 3037 3037 3036 3036 3036 3036 3036 3036 3035 3035 3035 3034 3034 3034 3033 3033 3033 3032 3032 3032 3032 3032 3032 3032 3031 3031 3031 3031 3030 3030 3029 3029 3028 3028 3027 3027 3026 3026 3026 3025 3025 3024 3024 3024 3023 3023 3023 3022 3022 3022 3022 3021 3021 3021
3035 3035 3035 3036 3036 3036 3036 3037 3037 3037 3037 3037 3038 3038 3038 3038 3038 3038 3038 3038 3038 3038 3038 3038 3038 3038 3037 3037 3037 3037 3037 3036 3036 3035 3035 3035 3035 3034 3034 3034 3033 3033 3033 3032 3032 3032 3032 3031 3031 3030 3030 3030 3030 3030 3030 3030 3030 3029 3029 3028 3028 3027 3027 3026 3026 3026 3025 3025 3025 3024 3024 3023 3023 3022 3022 3021 3021 3021 3021 3020 3020 3020 3020 3019 3019 3019
3034 3034 3034 3034 3035 3035 3035 3036 3036 3036 3036 3036 3036 3036 3037 3037 3037 3037 3037 3037 3037 3037 3037 3036 3036 3036 3036 3036 3036 3036 3035 3035 3034 3034 3033 3033 3033 3033 3032 3032 3032 3031 3031 3031 3031 3030 3030 3030 3029 3028 3028 3028 3028 3028 3027 3027 3027 3027 3027 3026 3026 3025 3025 3024 3024 3024 3023 3023 3022 3022 3021 3021 3021 3020 3020 3020 3019 3019 3018 3018 3018 3018 3017 3017 3016 3016
3032 3033 3033 3033 3033 3034 3034 3034 3035 3035 3035 3035 3035 3036 3036 3036 3036 3036 3036 3036 3036 3036 3036 3035 3035 3035 3034 3034 3034 3034 3033 3033 3033 3032 3032 3031 3031 3031 3031 3031 3030 3030 3029 3029 3029 3028 3028 3028 3027 3027 3026 3026 3026 3025 3025 3025 3025 3025 3025 3024 3024 3023 3023 3022 3022 3021 3021 3021 3020 3020 3019 3019 3019 3018 3018 3017 3017 3017 3016 3016 3016 3016 3015 3015 3014 3014
3031 3031 3031 3032 3032 3033 3033 3033 3033 3034 3034 3034 3034 3034 3035 3035 3035 3035 3035 3035 3034 3034 3034 3034 3033 3033 3033 3032 3032 3032 3032 3031 3031 3031 3030 3030 3029 3029 3029 3029 3028 3028 3028 3027 3027 3027 3026 3026 3026 3025 3025 3024 3024 3023 3023 3022 3022 3022 3022 3022 3021 3021 3021 3020 3020 3019 3019 3018 3018 3018 3017 3017 3016 3016 3016 3015 3015 3015 3014 3014 3014 3013 3013 3012 3012 3012
3030 3030 3030 3031 3031 3031 3031 3032 3032 3032 3032 3033 3033 3033 3033 3033 3033 3033 3033 3033 3033 3033 3032 3032 3032 3031 3031 3031 3031 3030 3030 3030 3029 3029 3029 3028 3028 3027 3027 3027 3026 3026 3026 3026 3026 3025 3025 3024 3024 3023 3023 3022 3022 3021 3021 3020 3020 3020 3020 3020 3019 3019 3018 3018 3017 3017 3017 3016 3016 3016 3015 3015 3014 3014 3014 3013 3013 3013 3012 3012 3011 3011 3011 3010 3010 3010
3028 3029 3029 3029 3029 3030 3030 3030 3030 3031 3031 3031 3031 3032 3032 3032 3032 3032 3032 3032 3031 3031 3031 3031 3031 3030 3030 3029 3029 3029 3028 3028 3028 3027 3027 3026 3026 3026 3025 3025 3025 3024 3024 3024 3024 3023 3023 3022 3022 3021 3021 3020 3020 3019 3018 3018 3017 3017 3017 3017 3017 3017 3016 3016 3016 3015 3015 3014 3014 3013 3013 3013 3012 3012 3011 3011 3011 3011 3010 3010 3010 3009 3009 3008 3007 3007
3027 3027 3027 3028 3028 3028 3028 3029 3029 3029 3030 3030 3030 3030 3030 3031 3031 3031 3031 3030 3030 3030 3030 3030 3029 3029 3028 3028 3027 3027 3026 3026 3026 3026 3025 3025 3024 3024 3023 3023 3023 3022 3022 3022 3022 3021 3021 3020 3020 3019 3019 3018 3018 3017 3016 3016 3015 3015 3015 3014 3014 3014 3014 3014 3013 3013 3012 3012 3011 3011 3011 3011 3010 3010 3009 3009 3009 3009 3008 3008 3007 3007 3006 3006 3005 3005
3026 3026 3026 3027 3027 3027 3027 3027 3028 3028 3028 3029 3029 3029 3029 3029 3029 3029 3029 3029 3029 3028 3028 3028 3027 3027 3026 3026 3025 3025 3025 3024 3024 3023 3023 3023 3022 3022 3021 3021 3021 3021 3020 3020 3020 3019 3019 3018 3018 3017 3017 3016 3016 3015 3015 3013 3013 3012 3012 3012 3012 3012 3011 3011 3011 3011 3010 3010 3009 3009 3009 3008 3008 3007 3007 3007 3006 3006 3006 3006 3005 3005 3004 3004 3003 3002
3025 3025 3025 3026 3026 3026 3026 3026 3026 3027 3027 3027 3027 3027 3027 3027 3027 3027 3027 3027 3027 3027 3026 3026 3026 3025 3025 3024 3023 3023 3023 3022 3022 3021 3021 3021 3020 3020 3020 3019 3019 3018 3018 3018 3017 3017 3016 3016 3016 3015 3015 3014 3014 3013 3012 3011 3011 3010 3009 3009 3009 3009 3009 3009 3008 3008 3008 3007 3007 3006 3006 3006 3006 3005 3005 3005 3004 3004 3003 3003 3003 3002 3002 3001 3001 3000
3023 3024 3024 3024 3025 3025 3025 3025 3025 3025 3026 3026 3026 3026 3026 3026 3026 3026 3026 3025 3025 3025 3025 3024 3024 3023 3023 3022 3021 3021 3021 3020 3020 3019 3019 3018 3018 3017 3017 3017 3016 3016 3016 3016 3015 3015 3014 3014 3013 3013 3012 3012 3011 3011 3010 3009 3008 3007 3007 3007 3007 3007 3007 3006 3006 3005 3005 3005 3004 3004 3004 3003 3003 3003 3003 3002 3002 3001 3001 3001 3000 3000 2999 2999 2998 2998
3022 3022 3022 3023 3023 3023 3023 3023 3024 3024 3024 3024 3024 3024 3024 3024 3024 3024 3024 3023 3023 3023 3023 3022 3022 3021 3021 3020 3019 3019 3018 3018 3018 3017 3017 3016 3016 3015 3015 3014 3014 3014 3013 3013 3013 3012 3012 3011 3011 3011 3010 3010 3009 3008 3008 3007 3006 3005 3005 3004 3005 3004 3004 3004 3003 3002 3002 3002 3002 3001 3001 3001 3001 3001 3000 3000 3000 2999 2999 2998 2997 2997 2996 2996 2996 2995
3021 3021 3021 3021 3021 3021 3021 3022 3022 3022 3022 3022 3022 3022 3022 3022 3022 3022 3021 3021 3021 3021 3021 3020 3020 3019 3019 3018 3017 3017 3016 3016 3015 3015 3015 3014 3014 3013 3012 3012 3011 3011 3011 3011 3010 3010 3009 3009 3008 3008 3007 3007 3006 3006 3005 3004 3003 3003 3002 3002 3002 3002 3001 3001 3000 3000 3000 2999 2999 2999 2998 2998 2998 2998 2998 2998 2997 2997 2996 2996 2995 2994 2994 2993 2992 2992
3019 3019 3019 3020 3020 3020 3020 3020 3020 3020 3020 3020 3020 3020 3020 3020 3020 3020 3019 3019 3019 3019 3018 3018 3017 3017 3016 3016 3015 3015 3014 3013 3013 3012 3012 3012 3012 3011 3011 3010 3009 3009 3008 3008 3008 3007 3007 3006 3006 3006 3005 3004 3004 3003 3003 3002 3001 3001 3000 3000 2999 2999 2999 2998 2997 2997 2997 2997 2996 2996 2996 2995 2995 2995 2995 2995 2995 2995 2994 2994 2993 2992 2991 2990 2990 2989
3017 3018 3018 3018 3018 3018 3018 3018 3018 3018 3018 3018 3018 3018 3018 3018 3018 3017 3017 3017 3017 3016 3016 3016 3015 3015 3014 3014 3013 3012 3012 3011 3011 3010 3010 3009 3009 3009 3008 3008 3007 3007 3006 3006 3005 3005 3004 3004 3004 3003 3002 3001 3001 3000 3000 2999 2999 2998 2998 2997 2997 2996 2996 2995 2995 2994 2994 2994 2994 2993 2993 2993 2992 2992 2993 2993 2993 2993 2992 2992 2991 2990 2989 2988 2987 2986
3016 3016 3016 3016 3016 3016 3016 3016 3016 3016 3016 3016 3016 3016 3016 3016 3015 3015 3015 3015 3014 3014 3014 3013 3013 3012 3012 3011 3011 3010 3010 3009 3008 3007 3007 3007 3006 3006 3006 3006 3005 3004 3004 3003 3002 3002 3002 3001 3001 3001 3000 2999 2998 2997 2997 2996 2996 2996 2995 2995 2994 2994 2993 2993 2992 2992 2991 2991 2991 2991 2990 2990 2990 2990 2990 2990 2990 2990 2990 2990 2989 2988 2987 2986 2985 2984